Meteo Giornale » Osservazioni meteo Italia » Pratica Di Mare

ore: 14:55 - Osservazioni Meteo Pratica Di Mare
Lat. 41° 39' N Lon. 12° 27' E Alt. 6 metri s.l.m.

nuvoloso Europe/Rome

18 °C

Nuvoloso

Temp. 24 Ore

13 °C

19 °C

Sud/Sud-Ovest

11.1 Km/h

Dew point 13 °C

Umidità 72 %

Visibilità  10 Km

Il sole sorge alle ore 06:59

Il sole tramonta alle ore 16:50

Data e Ora Cielo e Fenomeni T °C DP °C Um. % Pres. hPa Vis. km Vento km/h
Oggi h: 14:55 nuvoloso Nuvoloso 18 13 72 1018 10 S/SO 11.1
Oggi h: 13:55 poco_nuvoloso Poco Nuvoloso 19 12 63 1018 10 S/SO 13
Oggi h: 12:55 nuvoloso Nuvoloso 18 9 55 1019 10 N/NE 9.3
Oggi h: 11:55 nuvoloso Nuvoloso 17 10 63 1019 10 N 0
Oggi h: 10:55 nuvoloso Nuvoloso 16 11 72 1019 10 N/NE 13
Oggi h: 09:55 nuvoloso Nuvoloso 14 11 82 1019 10 N/NE 14.8
Oggi h: 08:55 nuvoloso Nuvoloso 14 12 87 1019 10 N/NE 14.8
Oggi h: 07:55 molto_nuvoloso Molto Nuvoloso 13 12 93 1019 10 N/NE 18.5
Oggi h: 06:55 nuvoloso Nuvoloso 14 12 87 1019 10 N/NE 18.5
Oggi h: 05:55 nuvoloso Nuvoloso 13 12 93 1020 10 N/NE 14.8
Oggi h: 04:55 nuvoloso Nuvoloso 13 12 93 1019 10 N/NE 18.5
Oggi h: 03:55 nuvoloso Nuvoloso 13 12 93 1020 10 N/NE 13
Oggi h: 02:55 poco_nuvoloso Poco Nuvoloso 13 12 93 1020 10 NE 11.1
Oggi h: 01:55 poco_nuvoloso Poco Nuvoloso 14 12 87 1020 10 N/NE 13
Oggi h: 00:55 nuvoloso Nuvoloso 14 13 93 1020 10 N/NE 14.8
Ieri h: 23:55 sereno Sereno 14 13 93 1020 10 N/NE 13
Ieri h: 22:55 sereno Sereno 13 12 93 1020 10 N 9.3
Ieri h: 21:55 sereno Sereno 13 12 93 1020 10 N/NE 9.3
Ieri h: 20:55 sereno Sereno 14 13 93 1020 10 N/NE 7.4
Ieri h: 19:55 sereno Sereno 14 13 93 1020 10 N/NE 9.3
Ieri h: 18:55 sereno Sereno 14 13 93 1021 10 N/NE 9.3
Ieri h: 17:55 sereno Sereno 15 14 93 1021 10 N 7.4
Ieri h: 16:55 sereno Sereno 17 14 82 1021 10 N 3.7
Ieri h: 15:55 poco_nuvoloso Poco Nuvoloso 18 12 67 1021 10 N 5.5